User: anonymous   Login
Location: Unspecified
(0.0000°N, 0.0000°E)
Time: 00:15:29
(UTC+00:00)
Language:

M3MSAT - Orbit

View from above orbital plane
View from above orbital plane
View from above satellite
View from above satellite

Ground track
Ground track

The orbit data is extracted from the following two-line orbital elements,

1 41605U 16040G   17326.20218713  .00001079  00000-0  52653-4 0  9992
2 41605  97.4433  26.6699 0010977 241.8568 118.1558 15.20398226 78680
Epoch (UTC): 22 November 2017 04:51:08
Eccentricity: 0.0010977
inclination: 97.4433°
perigee height: 497 km
apogee height: 512 km
right ascension of ascending node: 26.6699°
argument of perigee: 241.8568°
revolutions per day: 15.20398226
mean anomaly at epoch: 118.1558°
orbit number at epoch: 7868

The dashed part of the orbit path shows where the satellite is in the earth's shadow,  

DLR